User: anonymous   Login
Location: B?dargowo
(53.3916°N, 14.4413°E)
Time: 23:05:22
(UTC+00:00)
Language:

FENGYUN 1C DEB - Orbit

View from above orbital plane
View from above orbital plane
View from above satellite
View from above satellite

Ground track
Ground track

The orbit data is extracted from the following two-line orbital elements,

1 30886U 99025AXY 24052.57408915  .00002698  00000-0  13841-2 0  9996
2 30886  99.2552 271.8619 0038533 107.2946 253.2448 14.15904607870307
Epoch (UTC): 21 February 2024 13:46:41
Eccentricity: 0.0038533
inclination: 99.2552°
perigee height: 811 km
apogee height: 867 km
right ascension of ascending node: 271.8619°
argument of perigee: 107.2946°
revolutions per day: 14.15904607
mean anomaly at epoch: 253.2448°
orbit number at epoch: 87030

The dashed part of the orbit path shows where the satellite is in the earth's shadow,  

DLR